Marion, OH

12:00 PM EST on December 11, 2019 (GMT -0500)
Marion Municipal

Weather History for KMNN - November, 2019

Change the Weather History Date:

Wednesday, November 13, 2019

  Actual Average (WUND) Record (WUND)
Temperature  
Mean Temperature 16 °F -  
Max Temperature 26 °F - - (-1)
Min Temperature 5 °F - - (-1)
Degree Days  
Heating Degree Days 50    
Moisture  
Dew Point 10 °F    
Average Humidity 74    
Maximum Humidity 91    
Minimum Humidity 55    
Precipitation  
Precipitation 0.00 in - - ()
Sea Level Pressure  
Sea Level Pressure 30.37 in    
Wind  
Wind Speed 7 mph (South)    
Max Wind Speed 15 mph    
Max Gust Speed -    
Visibility 9 miles    
Events      
Averages and records for this station are not official NWS values.
T = Trace of Precipitation, MM = Missing Value Source: NWS Daily Summary

Daily Weather History Graph

Daily Weather History Graph

Search for Another Location

Airport or City:

Astronomy

Nov. 13, 2019 Rise Set
Actual Time 7:16 AM EST 5:16 PM EST
Civil Twilight 6:47 AM EST 5:45 PM EST
Nautical Twilight 6:14 AM EST 6:18 PM EST
Astronomical Twilight 5:41 AM EST 6:50 PM EST
Moon 6:18 PM EST (11/13) 8:08 AM EST (11/13)
Length of Visible Light 10h 58m
Length of Day
10h 00m
Full, 99% of the Moon is Illuminated
Nov 13
Full
Nov 19
Last Quarter
Nov 26
New
Dec 4
First Quarter
Dec 12
Full

Hourly Weather History & Observations

Time (EST) Temp. Windchill Dew Point Humidity Pressure Visibility Wind Dir Wind Speed Gust Speed Precip Events Conditions
12:53 AM 12.0 °F 1.5 °F 8.1 °F 84% 30.44 in 10.0 mi West 6.9 mph - N/A   Clear
1:53 AM 10.9 °F 0.2 °F 8.1 °F 88% 30.44 in 10.0 mi West 6.9 mph - N/A   Clear
2:53 AM 10.0 °F -0.9 °F 6.1 °F 84% 30.45 in 10.0 mi WNW 6.9 mph - N/A   Clear
3:53 AM 7.0 °F - 3.9 °F 87% 30.45 in 10.0 mi Calm Calm - N/A   Clear
4:53 AM 7.0 °F - 3.9 °F 87% 30.46 in 8.0 mi Calm Calm - N/A   Clear
5:53 AM 5.0 °F -2.1 °F 1.0 °F 84% 30.47 in 8.0 mi South 3.5 mph - N/A   Clear
6:53 AM 5.0 °F -4.1 °F 1.9 °F 87% 30.46 in 8.0 mi South 4.6 mph - N/A   Clear
7:53 AM 6.1 °F -0.9 °F 3.9 °F 91% 30.46 in 6.0 mi SSW 3.5 mph - N/A   Clear
8:53 AM 10.0 °F 3.6 °F 7.0 °F 87% 30.47 in 6.0 mi South 3.5 mph - N/A   Clear
9:53 AM 12.9 °F 1.6 °F 8.1 °F 81% 30.46 in 7.0 mi South 8.1 mph - N/A   Clear
10:53 AM 17.1 °F 7.6 °F 10.9 °F 77% 30.45 in 8.0 mi SSE 6.9 mph - N/A   Clear
11:53 AM 19.0 °F 9.0 °F 12.9 °F 77% 30.43 in 9.0 mi South 8.1 mph - N/A   Partly Cloudy
12:53 PM 21.9 °F 13.4 °F 14.0 °F 72% 30.39 in 9.0 mi SSE 6.9 mph - N/A   Clear
1:53 PM 24.1 °F 12.5 °F 10.0 °F 55% 30.39 in 10.0 mi SSW 12.7 mph - N/A   Clear
2:53 PM 24.1 °F 14.4 °F 10.9 °F 57% 30.37 in 10.0 mi SW 9.2 mph - N/A   Clear
3:53 PM 24.1 °F 14.4 °F 12.0 °F 60% 30.32 in 10.0 mi South 9.2 mph - N/A   Clear
4:53 PM 23.0 °F 12.4 °F 10.9 °F 60% 30.29 in 10.0 mi South 10.4 mph - N/A   Clear
5:53 PM 24.1 °F 13.7 °F 12.9 °F 62% 30.28 in 10.0 mi SSE 10.4 mph - N/A   Clear
6:53 PM 24.1 °F 13.7 °F 14.0 °F 65% 30.27 in 10.0 mi South 10.4 mph - N/A   Clear
7:53 PM 24.1 °F 13.1 °F 15.1 °F 69% 30.27 in 10.0 mi South 11.5 mph - N/A   Clear
8:53 PM 24.1 °F 11.5 °F 15.1 °F 69% 30.23 in 10.0 mi South 15.0 mph - N/A   Clear
9:53 PM 25.0 °F 13.1 °F 15.1 °F 66% 30.22 in 10.0 mi South 13.8 mph - N/A   Partly Cloudy
10:53 PM 26.1 °F 14.0 °F 15.1 °F 63% 30.20 in 10.0 mi South 15.0 mph - N/A   Overcast
11:53 PM 26.1 °F 16.2 °F 16.0 °F 66% 30.20 in 10.0 mi South 10.4 mph - N/A   Overcast